レモン彗星

C/2007 S2 ( Lemmon )

English version
Home page
Updated on April 6, 2013

---------------------------------------------------------------------

・ プロフィール

発見日 2007年9月25日
発見光度 18.9等
発見者 Mt. Lemmon survey

・ 写真集

・ 軌道要素

Epoch 2008 Sept. 11.0 TT = JDT 2454720.5
T 2008 Sept. 14.76211 TT                                MPC
q   5.5579756            (2000.0)            P               Q
n   0.02218493     Peri.  210.45736     -0.81635171     -0.51564478
a  12.5438432      Node   296.25211     +0.57092457     -0.65241837
e   0.5569161      Incl.   16.86237     +0.08726410     -0.55539241
P  44.4
From 392 observations 2003 Oct. 3-2011 May 9, mean residual 0".4.

・ 光度変化

        m1 = 10.7 + 5 logΔ + 5.0 log r

---------------------------------------------------------------------

軌道要素はM.P.E.C. 2013-B90に掲載されたものです。
光度グラフはComet for Windowsで作成したものです。

---------------------------------------------------------------------

Copyright(C) Seiichi Yoshida (comet@aerith.net). All rights reserved.